This is the latest recevied weather packets stored in our database for station/object N9PBY-2. If no packets are shown the sender has not sent any weather packets the latest 10 day(s).
| Time | Temp. | Humidity | Pressure | Rain* | Wind** | Luminosity | Snow |
|---|---|---|---|---|---|---|---|
| 1778217606 | 0.56° C | 65% | 1011.8 hPa | 0 mm | - | - | - |
| 1778217007 | 0.56° C | 65% | 1011.8 hPa | 0 mm | - | - | - |
| 1778216412 | 0.56° C | 64% | 1011.8 hPa | 0 mm | - | - | - |
| 1778215806 | 1.11° C | 63% | 1011.8 hPa | 0 mm | - | - | - |
| 1778215206 | 1.11° C | 63% | 1011.8 hPa | 0 mm | - | - | - |
| 1778214606 | 1.11° C | 62% | 1011.9 hPa | 0 mm | - | - | - |
| 1778214007 | 1.67° C | 62% | 1011.8 hPa | 0 mm | - | - | - |
| 1778213406 | 1.67° C | 61% | 1011.8 hPa | 0 mm | - | - | - |
| 1778212806 | 1.67° C | 61% | 1011.8 hPa | 0 mm | - | - | - |
| 1778212206 | 2.22° C | 60% | 1011.7 hPa | 0 mm | - | - | - |
| 1778211607 | 2.22° C | 59% | 1011.6 hPa | 0 mm | - | - | - |
| 1778211006 | 2.22° C | 59% | 1011.6 hPa | 0 mm | - | - | - |
| 1778210406 | 2.78° C | 59% | 1011.7 hPa | 0 mm | - | - | - |
| 1778209806 | 2.78° C | 58% | 1011.8 hPa | 0 mm | - | - | - |
| 1778209206 | 2.78° C | 58% | 1011.6 hPa | 0 mm | - | - | - |
| 1778208606 | 3.33° C | 57% | 1011.6 hPa | 0 mm | - | - | - |
| 1778208007 | 3.33° C | 56% | 1011.4 hPa | 0 mm | - | - | - |
| 1778207407 | 3.33° C | 56% | 1011.3 hPa | 0 mm | - | - | - |
| 1778206807 | 3.33° C | 55% | 1011.3 hPa | 0 mm | - | - | - |
| 1778206206 | 3.89° C | 55% | 1011.2 hPa | 0 mm | - | - | - |
| 1778205607 | 3.89° C | 55% | 1011.2 hPa | 0 mm | - | - | - |
| 1778205007 | 3.89° C | 54% | 1011.1 hPa | 0 mm | - | - | - |
| 1778204407 | 3.89° C | 54% | 1010.9 hPa | 0 mm | - | - | - |
| 1778203807 | 4.44° C | 53% | 1010.7 hPa | 0 mm | - | - | - |
| 1778203206 | 4.44° C | 52% | 1010.8 hPa | 0 mm | - | - | - |
* Rain latest hour (hover to see other rain measurements)
** Current wind speed in m/s (hover to see current wind gust speed)